Search flights

Fontanarossa Airport, Catania (LICC)

Airport Weather & NOTAM's

METAR for:LICC (Catania/Fontanarossa Arpt, CT, IT)
Text:LICC 172150Z 29012KT CAVOK 15/05 Q1008
Conditions at:2150 UTC 17 Apr 2024
Temperature: 15.0°C ( 59°F)
Dewpoint: 5.0°C ( 41°F) [RH = 51%]
Pressure (altimeter):29.76 inches Hg (1008.0 mb)
Winds:from the WNW (290 degrees) at 14 MPH (12 knots; 6.2 m/s)
Visibility:6 or more sm (10+ km)
Ceiling:ceiling and visibility are OK
Clouds:unknown
TAF for:LICC (Catania/Fontanarossa Arpt, CT, IT) issued at 1700 UTC 17 Apr 2024
Text:TAF LICC 171700Z 1718/1818 30017KT 9999 FEW050
Forecast period:1800 UTC 17 April 2024 to 1800 UTC 18 April 2024
Forecast type:FROM: standard forecast or significant change
Winds:from the WNW (300 degrees) at 20 MPH (17 knots; 8.7 m/s)
Visibility:6 or more sm (10+ km)
Ceiling:at least 12,000 feet AGL
Clouds:few clouds at 5000 feet AGL
Text:TEMPO 1718/1720 30022G35KT
Forecast period:1800 to 2000 UTC 17 April 2024
Forecast type:TEMPORARY: The following changes expected for less than half the time period
Winds:from the WNW (300 degrees) at 25 MPH (22 knots; 11.3 m/s) gusting to 40 MPH (35 knots; 18.0 m/s)

Live Departures & Arrivals

There are currently no arrivals or departures for this airport.

Departures History (last 12 months)

Flight No. Dest. Aircraft Date
SIC0265 DTTA HJET HA420... 2024-04-09 19:08:17
SIC0102 LIYM Cessna 172... 2024-04-09 19:13:04
SIC0090 LIYM Cessna 172... 2024-04-09 19:14:19
SIC1998 LIBD Cessna Sky... 2024-04-08 07:37:27
SIC0110 LICR Cessna Sky... 2024-04-08 19:09:33
BM-TR03 LICA Cessna Sky... 2024-04-06 20:08:53
1 LICB Cessna Sky... 2024-04-06 03:55:32
SIC0701 LIRF PMDG 737-8... 2024-04-04 21:05:07
BMV040 LICB Cessna 172... 2024-04-03 09:14:23
BM-TR02 LICC Cessna Sky... 2024-04-03 19:52:17
SIC0701 LIRN PMDG 737-8... 2024-03-25 21:30:07
SICSIC LIBR Airbus A32... 2024-03-20 12:39:27
SIC0755 LICA Cessna Sky... 2024-03-20 17:24:17
SIC006 LIRF FenixA320_... 2024-03-20 14:41:57
BMWT01 LHBP FenixA320_... 2024-03-19 16:08:08
SIC0701 LICC A2A Piper... 2024-03-17 09:24:54
BMV040 LICB Cessna 172... 2024-03-17 14:26:52
SIC0130 LICB Cessna Sky... 2024-03-11 20:33:22
SIC0701 LICR A2A PIPER... 2024-03-09 17:54:00
SIC0904 LIRN TBM850 AIR... 2024-03-07 20:12:22
SIC0701 LICB A2A Piper... 2024-03-05 16:52:53
SIC1117 LICA TBM 930 As... 2024-02-24 15:16:41
SIC0701 LIRF PMDG 737-8... 2024-02-22 15:18:07
BMV522 LIBC Money M20R... 2024-02-20 19:04:47
SICBMWT01 LHBP PMDG 737-8... 2024-02-19 17:03:32
SIC0673 LMML PMDG 737-7... 2024-02-19 16:49:03
BMWTO1 LHBP PMDG 737-8... 2024-02-15 15:53:25
SIC0130 LICJ Cessna Sky... 2024-02-14 12:49:54
BM1300 LIRF PMDG 737-8... 2024-02-14 17:42:51
SIC0904 LBSF PMDG 737-8... 2024-02-11 16:28:45
SIC0748 LBSF PMDG 737-8... 2024-02-11 16:20:07
SIC0128 LBSF PMDG 737-8... 2024-02-11 16:28:55
SIC0006 LBSF 320_JARDes... 2024-02-11 16:03:36
BMWT01 LHBP PMDG 737-8... 2024-02-10 15:32:47
SIC02 LICC Cessna Sky... 2024-02-06 09:20:29
SIC0103 LICA Carenado P... 2024-02-05 19:44:33
SIC0034 LICA Cessna 172... 2024-02-05 20:07:30
BMWT01 LHBP Black Squa... 2024-02-05 09:22:25
SIC0701 LIRF PMDG 737-8... 2024-02-04 14:35:08
SIC0701 LICA PMDG 737-8... 2024-02-01 15:13:28
BMV040 LICB Cessna Sky... 2024-02-01 21:51:49
BM-TR03 LICA Cessna Sky... 2024-02-01 20:17:42
BM-TR02 LICC Cessna Sky... 2024-01-30 20:18:14
BM-TR01 LICC Cessna Sky... 2024-01-30 13:40:54
SIC0701 LICR A2A Piper... 2024-01-26 20:35:46
BMWT01 LHBP PMDG 737-8... 2024-01-26 07:52:03
BMWT01 LHBP PMDG 737-8... 2024-01-25 21:33:54
BM-TR03 LICA Cessna Sky... 2024-01-25 21:29:48
BM-TR02 LICC Cessna Sky... 2024-01-25 20:11:20
SICBMWT01 LHBP Fly The Ma... 2024-01-24 09:35:23
BMWT01 LHBP PMDG 737-8... 2024-01-23 08:28:24
SICBMWT01 LHBP FenixA320... 2024-01-22 21:12:49
LICC_APP LICC C172 2024-01-23 20:17:00
BMWT01 LHBP FenixA320... 2024-01-22 06:33:29
SIC0090 LFMP Fly The Ma... 2024-01-21 17:16:43
SIC0998 LIRF PMDG 737-8... 2024-01-20 21:41:55
SIC0090 LXGB Fly The Ma... 2024-01-19 07:55:32
BM-TR01 LICC Cessna Sky... 2024-01-19 21:26:52
SIC0998 LICC A2A Piper... 2024-01-18 20:44:25
SIC0130 LICR Cessna Sky... 2024-01-18 21:46:25
LICC_APP LICC C172 2024-01-17 20:47:00
SIC1015 LIEE TBM 930 As... 2024-01-14 09:12:24
SIC0090 LICC TBM850 AIR... 2024-01-12 17:16:04
BMV0982 LICC Cessna 152... 2024-01-10 19:57:59
SIC1025 LICB Cessna 152... 2024-01-09 12:47:46
SICBM5384 LIPX PMDG 737-8... 2024-01-07 17:14:36
SIC1015 LIRN FenixA320... 2024-01-07 11:08:35
BMV522 LIBC Cessna Sky... 2024-01-07 13:31:33
SIC1025 LICR Cessna 152... 2024-01-05 20:53:05
SIC0130 LICC C152 JP AI... 2024-01-05 19:17:29
SIC0112 LICZ Bonanza G3... 2024-01-05 15:42:52
SIC0649 HLLT PMDG 737-6... 2024-01-02 15:29:06
SIC0172 HLLT Airbus A32... 2024-01-02 16:25:33
SICBM1410 LIEO PMDG 737-8... 2024-01-01 20:37:04
SIC0038 HLLT Airbus A32... 2024-01-01 16:48:54
SIC0649 LIRZ PMDG 737-6... 2023-12-19 15:45:33
LICC_TWR LICC TOWER 2023-12-18 19:30:00
SIC0130 LICP Cessna 172... 2023-12-18 20:26:45
SIC0130 LISG Cessna 172... 2023-12-18 11:56:34
SIC0034 LICC C208 | AIR... 2023-12-18 20:18:27
BMI0982 LICC ATR72-600... 2023-12-18 20:14:59
SICBM1320 LIPZ PMDG 737-8... 2023-12-16 16:51:10
SIC0090 LICC Cessna 172... 2023-12-15 22:08:04
SIC0038 LIEE PMDG 737-8... 2023-12-15 13:56:13
SIC00154 LICR TBM 930 AI... 2023-12-15 19:15:35
SIC0980 LICB Cessna Sky... 2023-12-14 21:59:41
SIC0904 LIRA FenixA320... 2023-12-14 20:36:32
BMV0982 LICC Tecnam P20... 2023-12-14 20:13:33
BM119 LIRA FenixA320_... 2023-12-14 20:23:24
BM1440 LIRA PMDG 737-8... 2023-12-13 12:01:01
SIC0130 LICJ Cessna Sky... 2023-12-12 19:58:53
SIC0133 LIME Airbus A32... 2023-12-11 19:36:04
CHARTER LFKJ FenixA320... 2023-12-11 08:00:14
BM1440 LIRA Mitsubishi... 2023-12-08 17:08:58
BM1410 LIEO PMDG 737-7... 2023-12-08 06:44:19
BM1400 LIEE Pilatus PC... 2023-12-08 10:06:16
SIC0172 LYTV Pilatus PC... 2023-12-07 17:54:42
SIC0133 LIRF Airbus A32... 2023-12-07 12:15:06
BM5376 LATI PMDG 737-8... 2023-12-05 06:07:05
SIC0133 LGZA Airbus A32... 2023-12-04 19:45:24
SIC0118 LIME FenixA320... 2023-12-03 16:32:17
BMV332 LICG Beechcraft... 2023-12-03 14:13:12
SIC0038 LGKR Airbus A32... 2023-12-02 20:44:02
BMV040 LICB Cessna Sky... 2023-12-01 20:36:26
SIC0133 LIMJ Airbus A32... 2023-11-26 13:27:04
BM-TR03 LICA Cessna 172... 2023-11-26 13:46:47
SIC0998 LICC A2A Piper... 2023-11-25 21:38:29
SIC0701 LICC A2A Piper... 2023-11-25 21:06:24
BMV040 LICB Cessna 152... 2023-11-23 12:59:20
SIC00154 LICJ Cessna Sky... 2023-11-21 14:10:16
LICC_TWR LICC C172 2023-11-20 16:04:00
BM-TR02 LICC Cessna 172... 2023-11-20 18:20:53
SIC0133 LIRA Airbus A32... 2023-11-18 13:40:45
BM1300 LIRF BS Analogu... 2023-11-14 17:35:40
SIC0006 LICC C172 2023-11-13 12:51:00
SIC0133 LEAL Airbus A32... 2023-11-12 12:55:01
BM-TR01 LICC Cessna 172... 2023-11-11 13:28:52
BM1300 LIRF Airbus A32... 2023-11-10 20:47:37
SIC0649 LGSK PMDG 737-8... 2023-11-09 05:25:21
SIC0038 LICJ Cessna 172... 2023-11-09 08:25:12
BMV015 LICJ Black Squa... 2023-11-06 06:40:00
SIC9294 LICR Cessna Sky... 2023-11-05 10:49:09
SIC0038 LIMF Airbus A32... 2023-11-04 05:48:29
SIC9294 LICB Cessna 152... 2023-11-03 13:17:32
SIC9294 LICB C172 2023-11-02 12:25:00
SIC0188 LICC C208 | AIR... 2023-11-03 15:55:19
SIC0103 LIRA PMDG 737-7... 2023-11-03 20:47:40
SIC0038 LEIB Airbus A32... 2023-11-03 05:33:52
SIC0172 LEMH FFX Vision... 2023-11-02 14:35:28
SIC0188 LICR C208 | AIR... 2023-11-01 15:45:53
BM1320 LIPZ PMDG 737-8... 2023-11-01 05:59:58
BM119 LIRF Boeing 787... 2023-11-01 09:29:42
SICBM1300 LIRF PMDG 737-8... 2023-10-30 18:09:53
SIC0133 LICT PC12 CHRON... 2023-10-29 15:03:32
BMV040 LICB Cessna 152... 2023-10-28 12:37:13
SIC0133 LICA PC12 CHRON... 2023-10-26 14:08:02
SIC 0701 LICA PMDG 737-8... 2023-10-24 20:01:46
BMV040 LICB Cessna Sky... 2023-10-23 15:14:44
BMV040 LICB Black Squa... 2023-10-23 13:11:53
SIC104 LIMF NA 2023-10-22 16:18:40
SIC0172 LIRN Black Squa... 2023-10-22 08:14:40
BM-TR03 LICA Cessna 172... 2023-10-22 16:16:39
LEG01LICC IRF FenixA320... 2023-10-20 18:46:30
BM1300 LIRF FFX Vision... 2023-10-20 12:45:27
SIC0152 LICB Cessna 152... 2023-10-19 20:07:00
BM 0123 LICB Cessna 172... 2023-10-19 19:25:51
SIC0904 LIBC FenixA320... 2023-10-18 20:40:06
SIC0701 LIRF B738 2023-10-18 19:59:00
SIC0090 DTTA Fly The Ma... 2023-10-15 19:05:02
SIC0103 LIMC PMDG 737-8... 2023-10-12 19:26:41
SIC0090 LICR A36 Bonanz... 2023-10-12 20:06:21
BM1300 LIRF FFX Vision... 2023-10-11 09:02:02
BM-TR02 LICC Cessna 172... 2023-10-11 09:52:47
BM1410 LIEO PMDG 737-8... 2023-10-10 14:01:23
BM1300 LIRF PMDG 737-8... 2023-10-09 15:15:12
SIC0118 LIRF FenixA320... 2023-10-07 19:38:52
SIC0038 LIBC Cessna 208... 2023-10-07 08:17:13
BMV030 LICT AT76 2023-10-07 04:45:00
SIC0038 LICB Cessna 208... 2023-10-06 19:36:37
BM1300 LIRF B738 2023-10-06 04:30:00
BM-TR01 LICC Cessna 172... 2023-10-06 19:42:33
SIC0038 LICT Cessna 208... 2023-10-05 07:45:59
BM1370 LIMJ PMDG 737-7... 2023-10-04 04:10:14
SIC0904 LIRF CRJ700 AIR... 2023-10-03 19:37:42
SIC0103 LIRF PMDG 737-7... 2023-10-03 19:23:58
SIC0038 LIMC PMDG 737-8... 2023-10-02 19:17:52
BM1300 LIRF FFX Vision... 2023-10-02 07:28:38
BM-TR01 LICC Cessna 172... 2023-10-02 19:58:10
SICBMTR02 LICC Cessna 172... 2023-10-01 19:22:29
BM-TR03 LICA CESSNA 152... 2023-10-03 13:05:00
BM-TR03 LICA Cessna 152... 2023-10-01 13:05:36
SIC0701 LICA PMDG 737-8... 2023-09-28 20:13:19
BM-TR02 LICC Cessna Sky... 2023-09-28 20:00:39
SIC998 LIRF PMDG 737-8... 2023-09-27 21:47:23
SIC0117 LICB Cessna Sky... 2023-09-23 13:25:26
SIC0112 LICR Cessna 172... 2023-09-22 19:28:50
BM5358 LFPG FenixA320... 2023-09-20 08:37:48
BM-TR01 LICC Cessna Sky... 2023-09-20 19:42:54
SICBMI001 LFKJ PMDG 737-8... 2023-09-18 16:38:38
SIC0160 LICB Cessna 152... 2023-09-18 17:08:04
BMV01 LICB Cessna Sky... 2023-09-18 20:36:21
BM-TR01 LICC Cessna Sky... 2023-09-18 19:37:24
SIC701 DTTA PMDG 737-8... 2023-09-13 21:48:39
SIC0006 LIRN 320_JARDes... 2023-09-11 14:14:16
BMI001 LFKJ PMDG 737-8... 2023-09-11 20:31:01
BMI001 LFKJ PMDG 737-8... 2023-09-11 20:32:23
SIC701 LICA PMDG 737-8... 2023-09-10 14:03:19
SIC0118 LIPE FenixA320... 2023-09-09 13:51:42
SIC1801 LICB Cessna 172... 2023-09-06 19:07:50
SIC0868 LICC A36 Bonanz... 2023-09-06 18:58:23
BMV0748 LICB A2A Piper... 2023-09-06 19:59:04
BMV0023 LICB C208 2023-09-07 19:03:00
BMI001 LFKJ B738 2022-09-03 14:00:00
SIC0038 LIRF PMDG 737-8... 2023-08-27 11:03:48
BMV100 LICR Air Sicili... 2023-08-27 15:44:13
SIC0105 LICB Cessna 172... 2023-08-26 20:21:38
BM-TR03 LICA Cessna 172... 2023-08-25 14:30:35
SIC0701 LICC King Air 3... 2023-08-16 21:53:07
SIC0701 LICB King Air 3... 2023-08-16 08:52:30
SIC0023 LFKJ FenixA320... 2023-08-16 12:55:32
BM1320 LIPZ FenixA320_... 2023-08-11 15:42:41
SIC0904 LEVC Boeing 787... 2023-08-08 08:02:06
SIC0998 LICJ NA 2023-08-04 16:58:07
BMI001 LFKJ Airbus A32... 2023-08-04 18:53:44
15 LIPO Airbus A32... 2023-08-04 10:49:34
SIC0378 LGAV PMDG 737-8... 2023-08-03 10:10:43
BMI001 LFKJ TBM 930 AI... 2023-08-03 13:29:27
BMV0982 LICP Carenado C... 2023-07-30 17:21:10
SIC0701 LICB C208 | AIR... 2023-07-22 15:39:58
SIC0701 LICJ B738 2023-07-18 21:45:00
SIC0701 LICJ BOEING 737... 2023-07-18 21:45:00
FCA6190 LIBD PMDG 737-8... 2023-07-13 09:56:22
FCA4313 LIRN PMDG 737-8... 2023-07-13 06:37:14
BM1390 LIMF FenixA320... 2023-07-10 15:57:02
BMI001 LFKJ FenixA320... 2023-07-06 05:15:14
SIC2679 LICA FenixA320... 2023-07-03 12:57:07
SIC0998 LIRF BOEING 737... 2023-07-02 18:08:00
BM5286 LSZH FenixA320... 2023-07-02 17:43:36
SIC2679 LIBR A320 2023-07-02 13:03:00
BMI001 LFKJ FenixA320... 2023-06-28 13:43:09
SIC0998 LGAV BOEING 737... 2023-06-29 20:20:00
SIC0701 LGAV PMDG 737-8... 2023-06-27 20:32:30
SIC2679 LICJ Cessna 208... 2023-06-22 21:21:06
1 LIPO Cessna Lon... 2023-06-22 19:00:38
SIC0868 LICJ A36TC Bona... 2023-06-19 19:06:52
SIC0103 LICJ G36 BONANZ... 2023-06-19 19:06:00
SIC0034 LICJ C208 | AIR... 2023-06-19 19:14:47
BMV0023 LICJ C208 2023-06-19 19:07:00
BM-TR03 LICA Cessna Sky... 2023-06-19 19:16:39
BM-TR02 LICC Cessna Sky... 2023-06-19 16:14:29
1 LICJ TBM 930 AI... 2023-06-19 18:46:40
SIC0023 LIEO FenixA320... 2023-06-17 13:55:53
BM-TR02 LICC C152 JP AI... 2023-06-17 13:31:05
SIC0868 LEBB FenixA320... 2023-06-16 09:16:34
SICBM1300 LIRF PMDG 737-8... 2023-06-15 15:11:39
BM-TR01 LICC C152 JP AI... 2023-06-15 17:41:18
SIC0123 LICB Cessna 172... 2023-06-11 22:08:08
SIC0250 LICC Cessna Sky... 2023-06-09 12:20:41
BM-TR01 LICC C172 2023-06-14 12:00:00
LICC_TWR LICC C172 2023-06-08 14:46:00
SICBMTR01 LICC Cessna 172... 2023-06-06 20:39:42
BMT224 LICA Cessna Sky... 2023-06-05 08:32:18
BM-TR03 LICA Cessna Sky... 2023-06-05 15:49:37
SIC2679 LICT Cessna 208... 2023-06-04 09:19:33
SIC0118 LICB Tecnam P92... 2023-06-03 06:31:39
BMTR-02 LICC Cessna Sky... 2023-06-03 18:29:10
BM-TR01 LICC Cessna Sky... 2023-06-03 09:07:51
SIC0868 DTTA FenixA320... 2023-06-02 07:51:53
BMV040 LICB Cessna 152... 2023-05-30 17:21:24
SIC0701 LICC Cessna 208... 2023-05-29 20:37:55
BMV520 LICP Cessna 172... 2023-05-29 08:41:07
BMI001 LFKJ Cessna Lon... 2023-05-29 19:02:36
SIC0027 LIRN PMDG 737-8... 2023-05-28 08:10:52
BMI0982 LICA King Air 3... 2023-05-28 18:48:56
BMI001 LFKJ B737-800 2023-05-24 19:27:00
SIC1165 LICA TBM 930 AI... 2023-05-23 07:56:14
SIC0023 LIRF Carenado P... 2023-05-23 19:30:55
SICBM1410 LIEO PMDG 737-8... 2023-05-22 15:38:38
SIC0434 LICC Cessna 172... 2023-05-21 22:35:51
BM-TR03 LICA Cessna Sky... 2023-05-18 19:01:53
BM-TR02 LICC Cessna Sky... 2023-05-18 08:11:15
SIC0250 LICC Cessna Sky... 2023-05-17 16:11:37
BMV040 LICB Cessna 172... 2023-05-17 22:33:49
BMV040 LICB Cessna Sky... 2023-05-16 09:18:21
LICC_TWR LICC C172 2023-05-14 10:12:00
CHARTER LICP Cessna Sky... 2023-05-14 14:24:41
BM-TR01 LICC Cessna Sky... 2023-05-14 20:07:04
SIC2679 LICJ Cessna Sky... 2023-05-12 23:12:13
LICC_TWR LICC C172 2023-05-12 15:50:00
LICC_TWR LICC C172 2023-05-10 15:23:00
SIC1165 LIPZ FenixA320... 2023-05-06 11:07:58
SIC0434 LIBD Cessna 172... 2023-05-06 17:45:54
SIC0023 LIME FenixA320... 2023-05-04 19:18:14
SIC0868 LDDU FenixA320... 2023-05-03 04:36:02
BM119 LICG ATR72-600... 2023-05-02 19:25:25
SIC0868 LIEA Fly The Ma... 2023-05-01 09:41:25
BM1300 LIRF 320_JARDes... 2023-05-01 07:53:46
BM-TR03 LICA Cessna Sky... 2023-04-28 18:25:51
SICSEH1275 LGRP Fly The Ma... 2023-04-27 20:44:22
SIC6LC LIPZ PMDG 737-8... 2023-04-27 19:04:49
SIC0038 LIEO PMDG 737-8... 2023-04-26 14:10:25
BM1350 LIRN FenixA320... 2023-04-26 07:42:01
SIC1117 LIEE PMDG 737-8... 2023-04-24 07:37:13
SIC0090 LOWI Fly The Ma... 2023-04-24 14:22:41
BM-TR03 LICA Cessna 172... 2023-04-23 15:04:19
SIC6440 LICC Tecnam P20... 2023-04-22 06:41:09
BM-TR03 LICA Cessna Sky... 2023-04-22 22:11:57
SICBM5314 LIPK PMDG 737-8... 2023-04-21 08:52:49
SIC0868 LJLJ PMDG 737-8... 2023-04-21 10:08:05
BMV522 LIBC Cessna Sky... 2023-04-21 15:12:22
BM-TR02 LICC Cessna 172... 2023-04-21 14:17:07
BM-TR02 LICC Cessna Sky... 2023-04-21 14:09:31

Arrivals History (last 12 months)

Flight No. Origin Aircraft Date
SIC0701 LIEO PMDG 737-8... 2024-04-11 21:27:33
BM-TR02 LICC Cessna Sky... 2024-04-03 20:26:26
SIC0868 EDDM FenixA320_... 2024-04-01 18:28:33
SIC0755 LICA Cessna Sky... 2024-03-26 14:26:49
SIC0128 LMML PMDG 737-8... 2024-03-25 21:34:22
SIC006 LEAL FenixA320_... 2024-03-25 18:41:48
BMWT50 LIRF Black Squa... 2024-03-24 14:32:49
SICBMWT50 LIRF FenixA320_... 2024-03-23 18:25:11
SIC0701 LICI A2A Piper... 2024-03-17 16:43:03
SIC0701 LICC A2A Piper... 2024-03-17 10:47:40
BMV045 LICB Money M20R... 2024-03-17 17:09:23
SIC0127 LIPZ B738 2024-03-11 15:56:00
SIC0127 LIPO B738 2024-03-08 20:59:00
BMV523 LIBC Cessna Sky... 2024-03-03 12:03:18
SIC0812 LIPE Fenix A320... 2024-03-02 18:09:42
SICBMWT50 LIRF Fly The Ma... 2024-03-01 23:03:21
SIC0868 LIMC Fenix A320... 2024-03-01 18:18:25
BMWT50 LIRF Airbus A32... 2024-03-01 09:30:45
SIC0998 LICI Tecnam P92... 2024-02-26 17:27:11
BMV523 LIBC Money M20R... 2024-02-25 15:09:19
SIC02 LICC Cessna Sky... 2024-02-06 09:55:54
SIC01 LICB Cessna Sky... 2024-02-05 16:39:50
BMV018 LICR Cessna 152... 2024-02-04 17:36:46
BMV045 LICB Cessna 172... 2024-02-02 20:36:38
BM-TR02 LICC Cessna Sky... 2024-01-30 21:14:57
BM-TR01 LICC Cessna Sky... 2024-01-30 14:20:39
SIC00154 LICB Cessna 172... 2024-01-28 11:45:35
BM-TR02 LICC Cessna Sky... 2024-01-25 21:09:03
LICC_APP LICC C172 2024-01-23 22:05:00
SIC0701 LMML PMDG 737-8... 2024-01-21 15:01:06
SIC0090 LERS Fly The Ma... 2024-01-20 23:21:47
SIC0649 LGSA B738 2024-01-19 06:49:00
BM-TR01 LICC Cessna Sky... 2024-01-19 22:54:15
SIC0998 LICC A2A Piper... 2024-01-18 21:40:45
SIC0090 LEMG Fly The Ma... 2024-01-18 19:06:47
LICC_APP LICC C172 2024-01-17 23:07:00
SIC0038 LGSA PMDG 737-8... 2024-01-15 22:08:15
SIC0172 LGSA FFX Vision... 2024-01-14 18:14:32
SIC0090 LICC TBM850 AIR... 2024-01-12 19:57:01
SICBM1325 LIPZ Fly The Ma... 2024-01-11 20:54:16
BMV0982 LICC Cessna 152... 2024-01-10 22:00:12
SIC1025 LICR Carenado M... 2024-01-08 14:10:31
SIC0130 LICJ C152 JP AI... 2024-01-06 21:34:46
SIC0130 LICC C152 JP AI... 2024-01-05 20:54:07
SIC0130 LICJ Cessna 172... 2023-12-28 23:23:23
BM6014 LIRP FenixA320... 2023-12-27 08:16:47
SICBM1395 LIMF FenixA320... 2023-12-26 18:40:24
SIC0904 LIPZ PMDG 737-8... 2023-12-20 21:17:27
SIC0649 LFMT FenixA320... 2023-12-19 10:27:09
LICC_TWR LICC TOWER 2023-12-18 23:00:00
SIC1801 LICT DA40-NG As... 2023-12-18 22:03:57
SIC0\33 LIPE Airbus A32... 2023-12-18 13:48:09
SIC0868 LICJ A36 Bonanz... 2023-12-18 21:37:56
SIC0673 LIEA PMDG 737-7... 2023-12-18 21:41:55
SIC0038 LIRF Airbus A32... 2023-12-18 12:20:11
SIC0034 LICC C208 | AIR... 2023-12-18 22:00:08
SIC0006 LICB Cessna 172... 2023-12-18 22:29:49
BMI0982 LICC ATR72-600... 2023-12-18 22:31:08
SIC0172 LIRF Pilatus PC... 2023-12-17 17:49:56
{}N172SB LICA Cessna 172... 2023-12-16 15:05:04
SIC0868 LSZH FenixA320... 2023-12-15 10:12:12
SIC0090 LICC Cessna 172... 2023-12-15 23:17:30
SIC0090 EBBR Fly The Ma... 2023-12-15 11:35:15
SIC0038 LFML PMDG 737-8... 2023-12-15 13:36:29
SIC0904 EDDM FenixA320... 2023-12-14 20:06:46
BMV0982 LICC Tecnam P20... 2023-12-14 21:55:14
SIC0130 LICJ Cessna 172... 2023-12-13 15:27:51
SIC0133 LEGE Airbus A32... 2023-12-11 14:43:58
SIC0038 LTFM PMDG 737-8... 2023-12-11 18:40:55
SIC992Q LIME FenixA320... 2023-12-08 16:16:52
SIC0172 LHBP Black Squa... 2023-12-08 16:41:40
SIC0649 LYBT FenixA320... 2023-12-06 12:14:58
SIC0172 LEPA Airbus A32... 2023-12-06 12:55:33
SIC0133 HLLQ Airbus A32... 2023-12-06 22:51:16
BMV105 LICR Black Squa... 2023-12-06 16:03:12
BMV329 LICG Beechcraft... 2023-12-03 17:14:07
SIC0904 LIPE PMDG 737-8... 2023-11-27 23:05:37
SIC0133 LEBL Airbus A32... 2023-11-27 10:48:23
SIC0034 LICB C208 | AIR... 2023-11-27 21:46:18
BMV035 LICT FFX Vision... 2023-11-27 21:04:15
SIC0172 LEVC FFX Vision... 2023-11-26 12:59:11
SIC0133 LGSR Airbus A32... 2023-11-26 10:49:43
SIC0998 LICC A2A Piper... 2023-11-25 22:27:18
SIC0701 LICC A2A Piper... 2023-11-25 22:32:16
BMV010 LICJ Cessna 172... 2023-11-23 21:36:36
LICC_TWR LICC C172 2023-11-20 17:08:00
BM-TR02 LICC Cessna 172... 2023-11-20 19:06:13
SIC0868 LIME FenixA320... 2023-11-17 10:01:55
SIC0133 LEMK Airbus A32... 2023-11-17 21:12:24
SIC0038 LOWI Airbus A32... 2023-11-15 11:14:48
SIC0006 LICC C172 2023-11-13 15:32:00
BM5385 LIPX FenixA320_... 2023-11-13 19:02:12
BM-TR01 LICC Cessna 172... 2023-11-11 14:04:00
SIC0649 LOWI PMDG 737-8... 2023-11-10 09:31:58
SIC0038 LIRN Airbus A32... 2023-11-09 05:46:59
BM1345 LIPE FenixA320... 2023-11-08 08:12:21
SIC0090 EGLL Fly The Ma... 2023-11-06 11:50:02
BM1305 LIRF PMDG 737-6... 2023-11-05 08:39:57
SIC0188 LICC C208 | AIR... 2023-11-03 17:11:23
SIC0038 LGSK Airbus A32... 2023-11-03 14:33:42
SIC1117 LIRF PMDG 737-8... 2023-11-01 07:50:07
SIC0133 LIMF Airbus A32... 2023-11-01 23:02:24
SIC LIMF FenixA320... 2023-11-01 23:04:54
SIC0133 LIPZ Airbus A32... 2023-10-31 11:57:36
SIC0006 GMME FenixA320... 2023-10-31 12:00:04
SIC0103 LIRF PMDG 737-7... 2023-10-30 20:27:55
BM1305 LIRF PMDG 737-8... 2023-10-30 22:12:26
SIC0701 LIMF PMDG 737-8... 2023-10-29 00:20:14
SIC0133 LIRF Airbus A32... 2023-10-29 10:22:53
BM1445 LIRA FFX Vision... 2023-10-28 18:59:02
0247 LICJ Cessna 172... 2023-10-28 23:59:33
SIC0133 LIRF Airbus A32... 2023-10-24 20:42:02
SIC0006 LIRN FenixA320... 2023-10-22 21:45:13
SIC0904 LIRF FenixA320... 2023-10-18 20:26:47
BM1345 LIPE Airbus A32... 2023-10-18 18:10:10
BM119 LIRF FenixA320... 2023-10-18 20:20:14
SIC0673 LIRN PMDG 737-7... 2023-10-16 13:01:07
SIC0118 LIMJ FenixA320... 2023-10-14 15:01:46
BM1415 LIEO PMDG 737-8... 2023-10-12 14:54:38
BM1445 LIRA Airbus A32... 2023-10-11 12:54:48
BM-TR02 LICC Cessna 172... 2023-10-11 10:41:40
SICBM5359 LFPG Fly The Ma... 2023-10-10 22:57:39
BM1445 LIRA PMDG 737-8... 2023-10-10 05:24:30
BM1345 LIPE FenixA320 2023-10-09 16:14:45
SIC0117 LICJ Cessna Sky... 2023-10-08 18:14:17
SIC0103 LIRF PMDG 737-8... 2023-10-08 19:26:00
BM5269 LIPY Airbus A32... 2023-10-08 16:19:42
BM1305 LIRF PMDG 737-6... 2023-10-06 09:20:05
BM1305 LIRF Airbus A31... 2023-10-06 05:03:06
BM-TR01 LICC Cessna 172... 2023-10-06 20:30:33
SIC0116 EDDS PMDG 737-8... 2023-10-05 13:25:17
SIC0038 LIRF Airbus A32... 2023-10-05 06:56:14
BM1305 LIRF PMDG 737-6... 2023-10-05 06:09:42
BM-TR01 LICC Cessna 172... 2023-10-02 20:41:57
SICBMTR02 LICC Cessna 172... 2023-10-01 20:15:27
BM1305 LIRF PMDG 737-8... 2023-10-01 16:18:34
BM-TR02 LICC Cessna Sky... 2023-09-28 20:49:06
SIC998 LICA PMDG 737-8... 2023-09-20 21:24:15
BM-TR01 LICC Cessna Sky... 2023-09-20 20:22:44
BM-TR01 LICC Cessna Sky... 2023-09-18 20:21:26
BM1305 LIRF FenixA320... 2023-09-16 13:59:02
SIC1560 LICB FenixA320... 2023-09-12 17:02:12
BM1325 LIPZ FenixA320... 2023-09-11 09:05:09
SIC0868 LICC A36 Bonanz... 2023-09-06 20:48:01
SIC0105 LICB Air Sicili... 2023-08-27 12:22:52
SIC0038 LIRF PMDG 737-8... 2023-08-27 07:20:14
SIC0378 ESSA Boeing 747... 2023-08-23 12:52:04
SI0107 LIRP FenixA320... 2023-08-17 10:42:35
SIC0701 LICC King Air 3... 2023-08-16 22:14:54
SIC0701 LICJ King Air 3... 2023-08-16 21:37:49
SIC0128 EGPH Airbus A32... 2023-08-15 12:43:50
BM5271 LGAV Airbus A32... 2023-08-08 22:47:45
SIC0904 LIMF PMDG 737-8... 2023-08-07 09:32:39
BMV018 LICR Cessna 208... 2023-08-06 08:12:06
BMV0982 LICA Carenado C... 2023-07-30 16:11:26
FCA6191 LIBD PMDG 737-8... 2023-07-13 13:15:28
FCA4314 LIRN PMDG 737-8... 2023-07-13 09:41:42
SICVFR0090 LICR Cessna 172... 2023-07-09 22:25:25
BMI0107 LIRN FenixA320... 2023-07-06 20:31:26
BMV045 LICB Cessna Sky... 2023-07-01 16:02:17
SIC2679 LIRN FenixA320... 2023-06-30 21:28:37
SIC0023 LIRN FenixA320... 2023-06-30 21:02:10
66 LIRN Cessna Lon... 2023-06-30 20:54:59
BMV018 LICR A36TC Bona... 2023-06-24 20:47:40
SICBM1395 LIMF B738 2023-06-21 21:27:00
SIC0126 LIMF PMDG 737-9... 2023-06-19 21:20:02
SIC0044 LIMF PMDG 737-8... 2023-06-19 21:04:54
BM1395 LIMF PMDG 737-8... 2023-06-19 21:22:21
BM-TR02 LICC Cessna Sky... 2023-06-19 17:05:03
BM-TR02 LICC C152 JP AI... 2023-06-17 14:28:25
SIC0868 LICA A36TC Bona... 2023-06-16 07:51:30
BM-TR01 LICC C152 JP AI... 2023-06-15 18:28:30
1 LIRN Cessna Cit... 2023-06-13 20:39:06
SIC0250 LICC Cessna Sky... 2023-06-09 13:01:44
BM-TR01 LICC C172 2023-06-14 13:00:00
LICC_TWR LICC C172 2023-06-08 16:47:00
SICBMTR01 LICC Cessna 172... 2023-06-06 21:36:36
SIC2679 LIBC Cessna 208... 2023-06-03 10:39:51
BMTR-02 LICC Cessna Sky... 2023-06-03 19:22:03
BM-TR01 LICC Cessna Sky... 2023-06-03 09:53:26
BMV018 LICR Cessna 208... 2023-06-02 15:04:36
SIC1165 LIBD FenixA320... 2023-05-30 21:16:15
SIC0701 LICC Cessna 208... 2023-05-29 21:31:48
BMI0982 LICG AT46 - GC1... 2023-05-29 20:34:28
BM1355 LIRN B737 2023-05-29 19:54:00
BMV115 LICA Cessna 172... 2023-05-28 14:01:09
BMV045 LICB Cessna 172... 2023-05-28 14:12:11
SICBMV018 LICR A36TC Bona... 2023-05-27 06:29:24
BMV521 LICP Cessna 208... 2023-05-27 15:59:16
BMV0023 LIRF FenixA320... 2023-05-27 11:02:13
1 LIMF Cessna Lon... 2023-05-26 15:00:24
BMV035 LICT Cessna 172... 2023-05-24 23:26:24
1 LIMF Cessna Lon... 2023-05-23 14:43:33
SIC0139 LICR Cessna 208... 2023-05-22 16:06:51
SIC1165 LIRA FenixA320... 2023-05-21 14:28:14
SIC0434 LICC Cessna 172... 2023-05-21 23:35:47
SIC0090 HECA Fly The Ma... 2023-05-20 23:30:53
BM-TR02 LICC Cessna Sky... 2023-05-18 08:58:32
SIC0250 LICC Cessna Sky... 2023-05-17 17:58:37
LICC_TWR LICC C172 2023-05-14 10:44:00
BM-TR01 LICC Cessna Sky... 2023-05-14 20:36:42
SIC0023 LIMF FenixA320... 2023-05-13 18:19:18
LICC_TWR LICC C172 2023-05-12 17:19:00
BMV018 LICR Cessna Sky... 2023-05-11 03:05:37
LICC_TWR LICC C172 2023-05-10 16:23:00
BMV010 LICJ Cessna Sky... 2023-05-06 15:19:58
SIC0868 LIPX FenixA320... 2023-05-04 17:50:40
SICBM1355 LIRN ATR 72-600... 2023-05-02 16:32:46
SIC0868 LATI ATR72-600... 2023-05-02 14:25:39
BMV018 LICR Cessna 208... 2023-04-26 13:23:40
SIC0090 LOWK MD82 2023-04-25 22:33:00
SIC1117 LOWW PMDG 737-8... 2023-04-23 17:38:40
SIC6440 LICC Tecnam P20... 2023-04-22 07:24:13
BM-TR02 LICC Cessna 172... 2023-04-21 15:14:38
BM-TR02 LICC Cessna Sky... 2023-04-21 15:01:41
SIC4CE EPKK PMDG 737-8... 2023-04-20 21:44:13
SIC0103 LIRN Flysimware... 2023-04-20 19:09:19

Runway Information (Airport elevation: 28ft)

Runway 08 Length 8,748ft Width 148ft Elevation 28ft Surface Asphalt Heading 84
Runway 26 Length 8,748ft Width 148ft Elevation 28ft Surface Asphalt Heading 264

Airport Frequencies

Type APP/DEP Frequency 119.250 Mhz
Type ATIS Frequency 127.675 Mhz
Type Ground Frequency 129.725 Mhz
Type Tower Frequency 118.700 Mhz
Type APP/DEP Frequency 120.805 Mhz

Airport Navaids

Type NDB Ident CAT Frequency 345 Khz
Type VOR-DME Ident CTF Frequency 116250 Khz
Type NDB Ident CTF Frequency 407 Khz